Probability
0 0 0 0 0 0 0 0 1 2 3 4 4 3 2 1 1 1 1 1 0 0 0 0 0 0 0 0 0 0 0 0 0 0 0 0 0 0 0 0 0 0 0
0 0 0 0 0 0 0 0 0 1 2 2 2 1 1 0 0 0 0 0 0 0 0 0 0 0 0 0 0 0 0 0 0 0 0 0 0 0 0 0 0 0 0
0 0 0 0 0 0 0 0 0 1 1 1 0 0 0 0 0 0 0 0 0 0 0 0 0 0 0 0 0 0 0 0 0 0 0 0 0 0 0 0 0 0 0
0 0 0 0 0 0 0 0 0 0 1 1 0 0 0 0 0 0 0 0 0 0 0 0 0 0 0 0 0 0 0 0 0 0 0 0 0 0 0 0 0 0 0
0 0 1 1 1 1 0 0 0 0 0 0 0 0 0 0 0 0 0 0 0 0 0 0 0 0 0 0 0 0 0 0 0 0 0 0 0 0 0 0 0 0 0
0 0 1 2 2 2 1 1 1 0 0 0 0 0 0 0 0 0 0 0 0 0 0 0 0 0 0 0 0 0 0 0 0 0 0 0 0 0 0 0 0 0 0
0 0 0 1 2 2 2 2 1 0 0 0 0 0 0 0 0 0 0 0 0 0 0 0 0 0 0 0 0 0 0 0 0 0 0 0 0 0 0 0 0 0 0
0 0 0 0 1 1 1 1 1 0 0 0 0 0 0 0 0 0 0 0 0 0 0 0 0 0 0 0 0 0 0 0 0 0 0 0 0 0 0 0 0 0 0
0 0 0 0 0 0 0 0 0 0 0 0 0 0 0 0 0 0 0 0 0 0 0 0 0 0 0 0 0 0 0 0 0 0 0 0 0 0 0 0 0 0 0
0 0 0 0 0 0 0 0 0 0 0 0 0 0 0 0 0 0 0 0 0 0 0 0 0 0 0 0 0 0 0 0 0 0 0 0 0 0 0 0 0 0 0
0 0 0 0 0 0 0 0 0 0 0 0 0 0 0 0 0 0 0 0 0 0 0 0 0 0 0 0 0 0 0 0 0 0 0 0 0 0 0 0 0 0 0
0 0 0 0 0 0 0 0 0 0 0 0 0 0 0 0 0 0 0 0 0 0 0 0 0 0 0 0 0 0 0 0 0 0 0 0 0 0 0 0 0 0 0
0 0 0 0 0 0 0 0 0 0 0 0 0 0 0 0 0 0 0 0 0 0 0 0 0 0 0 0 0 0 0 0 0 0 0 0 0 0 0 0 0 0 0
0 0 0 0 0 0 0 0 0 0 0 0 0 0 0 0 0 0 0 0 0 0 0 0 0 0 0 0 0 0 0 0 0 0 0 0 0 0 0 0 0 0 0
0 0 0 0 0 0 0 0 0 0 0 0 0 0 0 0 0 0 0 0 0 0 0 0 0 0 0 0 0 0 0 0 0 0 0 0 0 0 0 0 0 0 0
0 0 0 0 0 0 0 0 0 0 0 0 0 0 0 0 0 0 0 0 0 0 0 0 0 0 0 0 0 0 0 0 0 0 0 0 0 0 0 0 0 0 0
0 0 0 0 0 0 0 0 0 0 0 0 0 0 0 0 0 0 0 0 0 0 0 0 0 0 0 0 0 0 0 0 0 0 0 0 0 0 0 0 0 0 0
0 0 0 0 0 0 0 0 0 0 0 0 0 0 0 0 0 0 0 0 0 0 0 0 0 0 0 0 0 0 0 0 0 0 0 0 0 0 0 0 0 0 0
0 0 0 0 0 0 0 0 0 0 0 0 0 0 0 0 0 0 0 0 0 0 0 0 0 0 0 0 0 0 0 0 0 0 0 0 0 0 0 0 0 0 0
0 0 0 0 0 0 0 0 0 0 0 0 0 0 0 0 0 0 0 0 0 0 0 0 0 0 0 0 0 0 0 0 0 0 0 0 0 0 0 0 0 0 0
0 0 0 0 0 0 0 0 0 0 0 0 0 0 0 0 0 0 0 0 0 0 0 0 0 0 0 0 0 0 0 0 0 0 0 0 0 0 0 0 0 0 0
0 0 0 0 0 0 0 0 0 0 0 0 0 0 0 0 0 0 0 0 0 0 0 0 0 0 0 0 0 0 0 0 0 0 0 0 0 0 0 0 0 0 0
0 0 0 0 0 0 0 0 0 0 0 0 0 0 0 0 0 0 0 0 0 0 0 0 0 0 0 0 0 0 0 0 0 0 0 0 0 0 0 0 0 0 0
0 0 0 0 0 0 0 0 0 0 0 0 0 0 0 0 0 0 0 0 0 0 0 0 0 0 0 0 0 0 0 0 0 0 0 0 0 0 0 0 0 0 0
0 0 0 0 0 0 0 0 0 0 0 0 0 0 0 0 0 0 0 0 0 0 0 0 0 0 0 0 0 0 0 0 0 0 0 0 0 0 0 0 0 0 0
0 0 0 0 0 0 0 0 0 0 0 0 0 0 0 0 0 0 0 0 0 0 0 0 0 0 0 0 0 0 0 0 0 0 0 0 0 0 0 0 0 0 0
Wind_Speed
4 5 4 4 4 3 3 3 3 2 2 2 2 2 1 1 1 1 2 2 1 1 1 1 1 1 1 0 1 1 1 1 1 1 2 2 2 1 1 0 0 1 1
4 5 4 4 4 4 3 2 2 3 3 2 2 2 2 1 1 1 2 1 1 1 1 1 1 1 1 1 1 1 1 1 1 0 1 1 2 1 0 0 0 0 0
4 5 4 3 3 3 3 2 2 3 3 3 3 3 2 1 1 1 1 1 1 2 2 1 1 1 1 1 0 1 1 1 1 1 0 0 1 2 1 1 1 1 0
4 4 4 4 3 3 2 2 3 3 3 3 3 3 2 1 1 1 1 1 1 2 2 1 1 1 1 1 1 1 1 0 1 1 0 1 1 1 2 2 1 1 1
5 4 4 4 4 4 3 2 3 3 3 3 2 2 1 1 1 1 1 1 1 1 1 1 1 1 1 1 1 1 1 0 1 1 1 1 1 1 2 3 2 2 2
5 5 4 5 4 4 3 2 3 3 3 2 2 2 2 2 1 1 0 0 0 0 1 1 1 0 0 0 1 1 1 1 1 1 1 1 1 1 1 3 3 3 2
5 5 5 5 4 4 3 3 3 2 3 3 2 1 1 1 1 1 1 1 0 0 1 0 0 0 0 1 0 1 1 1 1 1 1 1 1 1 1 2 3 3 3
4 5 5 5 5 5 4 3 3 3 3 3 2 1 2 1 1 1 1 1 1 1 1 1 0 1 1 1 0 0 1 1 1 2 2 1 1 1 1 2 2 3 3
4 4 4 5 5 4 4 3 3 3 3 3 3 2 2 2 1 1 1 1 1 1 1 1 1 1 1 1 1 1 1 1 1 2 2 1 1 1 1 1 1 2 4
4 3 3 3 4 4 3 3 3 3 2 3 3 2 2 2 2 2 2 1 1 1 1 1 2 2 2 2 1 1 2 2 2 2 2 2 1 1 1 1 2 2 3
4 3 3 3 3 3 3 3 3 2 2 2 2 2 2 2 2 2 2 2 2 2 2 2 2 2 2 2 2 2 2 2 2 2 2 3 2 2 2 1 2 2 2
3 3 3 3 3 3 3 3 3 3 3 2 2 2 2 2 3 3 3 3 3 3 3 3 3 3 3 3 3 3 3 3 3 3 3 3 2 3 2 2 2 3 3
3 3 3 3 3 3 3 3 3 3 3 2 2 2 3 3 3 3 3 3 3 3 3 3 3 3 3 3 3 4 4 4 4 4 4 4 3 3 2 2 3 3 3
3 3 3 3 3 3 3 3 3 3 3 3 3 3 3 4 3 3 3 3 3 3 3 3 4 4 3 3 3 3 3 4 4 4 4 4 4 4 3 3 3 3 3
3 3 3 2 2 2 2 3 3 3 3 3 3 4 4 3 3 3 4 3 4 4 4 4 4 4 4 4 4 3 4 4 4 4 4 4 5 5 4 3 3 3 3
3 2 2 2 2 3 3 3 3 3 3 3 4 4 3 4 4 4 4 4 4 4 4 4 4 4 4 6 6 5 4 4 5 5 5 4 5 6 7 7 7 6 5
2 2 3 3 3 3 3 3 3 2 2 3 4 3 4 4 4 4 4 4 4 4 4 5 4 5 5 7 8 8 5 5 5 5 4 4 4 6 4 6 8 8 9
2 1 1 2 2 2 2 2 2 2 3 3 4 4 4 4 4 4 5 5 4 4 4 5 5 5 6 8 9 8 6 5 6 6 6 5 5 5 5 5 5 5 6
2 1 1 1 1 2 2 2 2 3 3 4 5 4 4 4 4 5 5 4 4 4 4 5 5 6 6 8 9 8 4 5 6 6 6 6 6 8 8 5 5 6 5
1 1 1 1 2 2 2 2 3 3 4 4 4 4 4 4 5 5 5 4 4 5 4 5 5 6 6 9 10 9 4 5 5 5 5 8 8 9 9 6 5 6 6
1 1 1 2 2 2 1 2 3 4 4 3 3 3 3 4 5 4 4 3 4 4 5 5 5 6 7 8 10 10 5 5 5 4 4 5 9 10 10 8 6 8 6
2 2 2 3 2 2 2 3 4 4 3 2 3 4 4 4 3 4 4 4 4 5 5 5 5 4 5 7 9 12 11 8 5 5 4 5 9 10 11 9 9 11 7
3 2 3 3 3 3 3 4 4 3 2 3 4 4 4 4 4 4 4 4 4 4 4 4 4 4 4 5 9 11 12 12 7 5 8 9 9 9 8 10 11 8 4
3 3 3 4 4 3 3 4 3 2 2 4 4 4 4 4 4 4 4 4 4 4 4 5 5 4 4 3 4 4 5 8 7 5 7 9 9 7 8 8 6 4 4
3 3 3 4 5 4 3 3 3 2 3 4 4 4 4 4 4 4 5 5 5 6 6 5 5 5 5 6 7 5 4 4 5 4 3 3 3 4 4 4 4 3 4
3 3 4 4 5 4 4 4 3 3 3 4 4 3 3 3 4 4 4 6 7 9 10 9 8 6 9 10 11 11 11 11 10 6 4 5 5 5 5 5 4 4 4
Wind_Direction
133 126 127 122 119 113 112 129 145 139 120 118 118 101 115 107 97 100 109 111 93 60 58 40 33 31 37 21 358 354 327 317 353 355 318 286 247 213 205 164 82 92 65
127 126 129 129 130 129 127 134 131 122 114 115 112 108 107 110 100 87 86 92 97 82 59 47 31 35 16 20 18 24 360 316 353 27 330 323 317 310 230 155 169 144 43
144 136 137 139 127 119 123 130 124 119 111 107 102 94 75 58 70 92 125 124 111 99 79 45 33 19 28 3 326 40 36 328 310 44 97 309 275 312 288 234 214 208 253
136 137 141 141 130 126 122 116 118 121 113 107 112 120 123 142 176 143 137 128 108 99 93 65 40 28 23 6 322 29 23 26 298 304 296 236 228 280 303 288 267 273 263
140 140 138 138 132 124 117 115 114 110 106 107 122 127 115 121 88 78 77 94 120 126 121 104 58 26 11 359 345 346 358 318 269 277 287 294 295 248 245 281 284 290 274
143 137 127 120 116 113 114 124 125 122 117 123 131 134 126 105 95 86 139 179 121 115 139 149 141 148 348 331 316 314 283 281 289 294 281 255 254 263 257 274 288 281 270
145 143 141 138 140 141 145 148 143 141 137 136 138 135 127 134 161 181 191 197 153 170 218 187 184 208 248 257 279 291 284 266 257 271 283 284 269 265 261 270 285 290 283
143 147 152 152 153 156 160 158 155 157 152 150 156 155 156 158 179 183 176 206 204 192 190 189 229 249 249 248 232 279 279 268 257 269 271 272 277 286 258 245 266 290 288
141 145 146 146 148 157 162 165 166 166 166 165 162 169 179 181 192 206 203 206 222 221 198 224 255 265 260 245 222 229 277 279 261 258 261 259 265 276 289 268 228 243 278
148 149 144 144 151 157 160 163 167 166 167 173 172 173 190 192 196 195 212 220 229 232 226 234 241 247 248 239 227 236 246 250 266 260 264 267 259 260 263 260 255 233 242
159 159 155 151 149 149 158 167 172 169 174 181 182 185 192 191 196 207 216 217 219 220 226 230 232 235 236 231 224 227 230 240 256 261 256 262 260 253 249 253 256 251 239
152 157 159 154 154 163 175 184 187 186 188 188 193 199 198 195 204 216 217 213 222 225 223 227 230 232 231 227 228 235 231 231 243 252 253 260 261 254 246 246 251 252 244
156 160 163 167 172 179 187 193 198 196 189 184 197 211 212 208 217 224 220 216 221 230 231 228 236 237 232 228 231 232 235 234 235 239 243 251 251 257 254 251 255 256 259
180 183 187 187 186 191 199 202 207 199 191 192 203 216 219 215 218 224 223 221 220 224 230 234 238 239 237 234 235 235 238 245 246 241 238 239 238 244 246 251 253 257 262
205 197 199 208 200 202 213 213 216 208 197 203 213 222 225 219 218 223 226 224 224 226 227 234 239 236 234 232 229 235 243 245 250 249 242 237 237 241 243 249 250 252 254
212 202 206 218 217 217 224 225 226 218 203 213 225 228 226 223 221 223 225 226 228 230 229 233 235 236 239 234 230 231 242 248 247 250 248 242 239 244 251 256 255 246 243
235 217 210 215 221 225 227 233 230 229 221 228 236 233 230 229 227 224 223 228 229 230 233 235 236 239 242 239 237 236 238 244 247 247 247 251 242 237 240 251 257 255 253
303 260 237 230 223 225 235 228 215 215 224 237 244 239 235 234 228 224 226 229 226 227 231 235 238 242 244 241 242 242 241 244 246 242 237 240 245 236 233 240 248 250 250
309 294 277 272 252 236 225 222 223 217 226 236 239 236 233 236 234 233 233 231 229 235 234 232 234 240 248 240 239 237 238 245 249 246 239 237 242 243 238 241 250 259 260
340 342 339 319 284 264 219 217 236 233 236 238 240 236 230 232 237 238 239 236 232 237 238 239 235 237 245 244 239 233 232 244 250 249 244 242 245 251 246 237 239 253 259
315 309 291 273 267 266 237 244 251 247 245 241 241 242 237 237 240 242 239 236 237 241 244 247 246 239 241 245 240 236 232 235 246 249 248 245 249 254 256 252 242 251 259
296 288 273 268 266 249 235 249 253 253 245 241 246 248 245 244 241 233 239 235 232 240 247 251 255 247 242 240 240 239 240 244 246 250 250 250 252 254 259 259 255 258 262
285 279 272 273 269 249 236 250 263 262 251 251 253 253 251 246 238 230 232 235 231 234 241 242 251 255 243 242 245 247 248 251 249 250 257 261 259 259 258 255 256 253 245
272 270 269 272 272 261 250 247 255 248 250 256 257 253 251 252 246 238 228 227 228 232 237 241 249 256 255 247 242 241 246 251 254 257 261 262 257 254 252 256 251 237 229
274 266 260 263 269 270 264 258 250 241 253 258 258 258 253 250 248 243 234 232 231 227 235 240 239 247 256 250 249 254 250 239 242 256 255 250 246 240 240 241 239 232 234
276 277 273 268 270 269 267 261 247 236 247 261 260 256 255 255 252 255 267 251 246 254 253 250 249 256 258 268 269 266 267 267 262 257 246 244 240 240 242 240 238 233 234